Location: Pony
(45.6596°N, 111.8933°W)
Time: 18:12:02
(UTC+00:00)

N. Korean satellite - Visible Passes

Search period start: 25 January 2022 00:00
Search period end: 04 February 2022 00:00
Orbit: 447 x 491 km, 97.3° (Epoch: 25 January)

Date Brightness Start Highest point End Pass type
(mag) Time Alt. Az. Time Alt. Az. Time Alt. Az.
25 Jan 7.1 12:33:26 10° NNE 12:37:02 58° E 12:37:10 57° ESE visible
25 Jan 8.5 14:08:18 10° NW 14:09:41 12° WNW 14:11:05 10° W visible
26 Jan 8.8 12:04:39 10° NE 12:07:44 25° E 12:08:05 25° ESE visible
26 Jan 7.7 13:37:50 10° NNW 13:40:46 23° WNW 13:42:09 19° W visible
27 Jan 9.9 11:36:49 10° ENE 11:38:17 12° E 11:39:01 11° ESE visible
27 Jan 6.7 13:08:10 10° N 13:11:44 50° WNW 13:13:05 31° SW visible
28 Jan 6.8 12:38:54 10° NNE 12:42:32 69° E 12:44:02 33° S visible
28 Jan 8.6 14:14:30 10° NW 14:15:07 10° WNW 14:15:44 10° WNW visible
29 Jan 8.5 12:10:00 10° NNE 12:13:13 29° E 12:15:01 19° SE visible
29 Jan 7.9 13:43:26 10° NNW 13:46:11 21° WNW 13:48:55 10° WSW visible
30 Jan 9.7 11:41:48 10° ENE 11:43:45 14° E 11:45:42 10° ESE visible
30 Jan 6.9 13:13:39 10° N 13:17:07 43° WNW 13:20:07 13° SW visible
31 Jan 6.6 12:44:16 10° NNE 12:47:55 81° E 12:51:17 12° S visible
01 Feb 8.2 12:15:14 10° NNE 12:18:35 34° E 12:21:53 10° SSE visible
01 Feb 8.0 13:48:56 10° NNW 13:51:28 18° WNW 13:53:59 10° WSW visible
02 Feb 9.5 11:46:48 10° NE 11:49:06 16° E 11:51:22 10° SE visible
02 Feb 7.1 13:19:01 10° N 13:22:24 37° WNW 13:25:43 10° SW visible
03 Feb 6.4 12:49:32 10° NNE 12:53:10 87° WNW 12:56:46 10° SSW visible
